Content
SEND FEEDBACK

Daily
Averages
Monthly
Summary
United States of America

CAMP QUEZON, GUAM


Home > North America > United States > Guam
Elevation: 82 meters     Latitude: 13 28N     Longitude: 144 48E

WEATHER
 
SELECT A DAY
Number of Records: 209,165;   Date Range: 1/1/95 - 8/30/14
 
SHARE

PRINT THIS DATA

[ ← Previous Day ]
WEATHER ALMANAC - 10 APRIL, 2014
[ Next Day → ]
[ °F ]   °C
Weather ElementAverageHighLow
Temperature28.8 °C31.7 °C (3:54 pm)26.7 °C (4:54 am)
Dewpoint23.2 °C24.4 °C (8:54 pm)22.2 °C (9:54 am)
Humidity72.4 %85 % (8:54 pm)61 % (10:54 am)
Barometer1010.2 hPa1012.2 hPa (8:54 am)1008.1 hPa (3:54 pm)
Wind Speed17.1 km/h24.1 km/h (1:54 pm)
Weather ElementAverage
Visibility16.1 km
Wind DirectionENE (72 °)

Weather ElementTotal
Precipitation---
Cooling Degree Days10.9 (Base 18.3)
Growing Degree Days19.2 (Base 10)
Averaged from 25 records on 10 April, 2014
WEATHER CONDITIONS BREAKOUT
WIND DIRECTION BREAKOUT
WEATHER BY HOUR - 10 APRIL, 2014
[ °F ]   °C
Local TimeTemperatureDewpointHumidityBarometerVisibilityWind DirectionWind SpeedGust SpeedPrecipitationEventsConditions
1:54 AM27.2 °C22.8 °C77 %1010.2 hPa16.1 kmENE (70°)13 km/hMostly Cloudy
2:54 AM27.2 °C22.8 °C77 %1010.2 hPa16.1 kmNE (50°)16.7 km/hMostly Cloudy
3:54 AM27.2 °C22.8 °C77 %1009.8 hPa16.1 kmEast (90°)11.1 km/h0 mmClear
4:54 AM26.7 °C22.8 °C79 %1010.2 hPa16.1 kmEast (80°)13 km/hPartly Cloudy
5:54 AM26.7 °C22.8 °C79 %1010.5 hPa16.1 kmEast (80°)13 km/hPartly Cloudy
6:54 AM27.2 °C22.8 °C77 %1011.2 hPa16.1 kmEast (80°)14.8 km/hScattered Clouds
7:54 AM28.3 °C22.8 °C72 %1011.9 hPa16.1 kmEast (90°)18.5 km/hScattered Clouds
8:54 AM28.9 °C22.8 °C69 %1012.2 hPa16.1 kmEast (80°)16.7 km/hScattered Clouds
9:54 AM30 °C22.2 °C63 %1011.9 hPa16.1 kmENE (60°)18.5 km/hPartly Cloudy
10:54 AM30.6 °C22.2 °C61 %1011.5 hPa16.1 kmEast (80°)20.4 km/hScattered Clouds
11:54 AM30 °C22.8 °C65 %1011.2 hPa16.1 kmEast (90°)20.4 km/hScattered Clouds
12:54 PM31.1 °C22.8 °C61 %1010.2 hPa16.1 kmEast (80°)20.4 km/hScattered Clouds
1:54 PM31.1 °C22.8 °C61 %1009.1 hPa16.1 kmENE (60°)24.1 km/hPartly Cloudy
2:54 PM31.1 °C22.8 °C61 %1008.5 hPa16.1 kmNE (50°)20.4 km/hPartly Cloudy
3:54 PM31.7 °C23.3 °C61 %1008.1 hPa16.1 kmNE (50°)24.1 km/hPartly Cloudy
4:05 PM31 °C23 °C62 %1009.1 hPa16.1 kmENE (60°)20.4 km/hMostly Cloudy
4:34 PM29 °C23 °C70 %1009.5 hPa16.1 kmEast (80°)20.4 km/hScattered Clouds
4:54 PM29.4 °C23.9 °C72 %1008.8 hPa16.1 kmEast (90°)18.5 km/hPartly Cloudy
5:54 PM28.3 °C23.9 °C77 %1009.5 hPa16.1 kmEast (80°)16.7 km/hClear
6:54 PM27.8 °C23.9 °C79 %1009.8 hPa16.1 kmENE (60°)13 km/hClear
7:54 PM27.8 °C23.9 °C79 %1010.5 hPa16.1 kmENE (60°)14.8 km/hClear
8:54 PM27.2 °C24.4 °C85 %1010.8 hPa16.1 kmNE (50°)14.8 km/hClear
9:54 PM27.8 °C24.4 °C82 %1011.2 hPa16.1 kmEast (80°)14.8 km/hClear
10:54 PM27.8 °C24.4 °C82 %1011.5 hPa16.1 kmEast (80°)13 km/hClear
11:54 PM27.8 °C24.4 °C82 %1010.8 hPa16.1 kmENE (70°)13 km/hClear
Hourly data recorded from PGUM, located 0 kilometers away from Camp Quezon, Guam







STORIES FROM OUR PARTNERS